Regional Weather Roundup
Issued by NWS

Home | Current Version | Previous Version | Text Only | Print | Product List | Glossary Off
Versions: 1 2 3 4 5 6 7 8 9 10 11 12 13 14 15 16 17 18 19 20 21 22 23 24 25 26 27 28 29 30 31 32 33 34 35 36 37 38 39 40 41 42 43 44 45 46 47 48 49 50

000
ASUS43 KBIS 281310
RWRND

NORTH DAKOTA REGIONAL WEATHER ROUNDUP
NATIONAL WEATHER SERVICE BISMARCK ND
800 AM CDT TUE JUL 28 2015

NOTE: "FAIR" INDICATES FEW OR NO CLOUDS BELOW 12,000 FEET WITH NO
SIGNIFICANT WEATHER AND/OR OBSTRUCTIONS TO VISIBILITY.


NDZ001>003-009>011-017-281400-
NORTHWEST NORTH DAKOTA

CITY           SKY/WX    TMP DP  RH WIND       PRES   REMARKS
WILLISTON      CLOUDY    60  53  77 SW22G32   29.56F
MINOT          CLOUDY    63  54  72 SW17G26   29.58S
MINOT AFB      CLOUDY    65  58  79 SW17G26   29.57S
$$

NDZ018>021-031>035-040>046-281400-
SOUTHWEST NORTH DAKOTA

CITY           SKY/WX    TMP DP  RH WIND       PRES   REMARKS
BISMARCK       MOSUNNY   62  52  69 W24G33    29.73S
DICKINSON      CLOUDY    58  47  66 W28G36    29.73R
GARRISON         N/A     61  53  75 W22G37    29.64S
HETTINGER ARPT SUNNY     56  47  71 W24G32    29.84R
$$

NDZ004>008-012>016-024-026-027-054-281400-
NORTHEAST NORTH DAKOTA

CITY           SKY/WX    TMP DP  RH WIND       PRES   REMARKS
GRAND FORKS    CLOUDY    72  69  90 S8        29.59S
GRND FRKS AFB  CLOUDY    73  68  85 SW13      29.58F
DEVILS LAKE    CLOUDY    68  57  68 W22G28    29.60R
$$

NDZ022-023-025-028>030-036>039-047>053-281400-
SOUTHEAST NORTH DAKOTA

CITY           SKY/WX    TMP DP  RH WIND       PRES   REMARKS
FARGO          CLOUDY    71  68  90 SW10      29.67S
JAMESTOWN      PTSUNNY   67  60  78 W20G26    29.68R
$$




USA.gov is the U.S. government's official web portal to all federal, state and local government web resources and services.